Flag for Canada Weather past 2 weeks in Gatineau, Quebec, Canada

Now
32 °F

Partly sunny.


Feels Like: 25 °F
Forecast: 25 / 48 °F
Wind: 8 mph from Southeast

Location: Ottawa Int'L. Ont.


UV Index: 5 (Moderate)

Visibility: 15 mi


Pressure: 30.74 "Hg

Humidity: 64%

Dew point: 21 °F

Location of GatineauLocation

Historic Weather in Gatineau

°F

Gatineau temperature yesterday

Maximum temperature yesterday: 36 °F (at 6:00 PM)
Minimum temperature yesterday: 16 °F (at 4:00 AM)
Average temperature yesterday: 25 °F

Past Weeks' High & Low Weather Summary

 TemperatureHumidityPressure
High77 °F (Apr 14, 1:00 PM)100% (Apr 4, 9:00 PM)30.73 "Hg (Apr 4, 9:00 PM)
Low16 °F (Apr 16, 4:00 AM)31% (Apr 9, 4:00 PM)29.27 "Hg (Apr 8, 12:00 PM)
Average38 °F69%29.93 "Hg
* Reported Apr 2 8:00 AM — Apr 17 8:00 AM, Gatineau, Weather by CustomWeather, © 2014

Note: Actual official high and low records may vary slightly from our data, if they occured in-between our weather recording intervals... More about our weather records

Advertising

Historic Weather Conditions — Data for Previous 24 hours

 ConditionsComfort  
Time TempWeatherWind HumidityBarometerVisibility
8:00 AM
Apr 17
28 °FScattered clouds.8 mph74%30.73 "Hg15 mi
7:00 AM23 °FPassing clouds.6 mph86%30.71 "Hg15 mi
6:00 AM19 °FPassing clouds.5 mph86%30.70 "Hg15 mi
5:00 AM21 °FClear.5 mph86%30.69 "Hg15 mi
4:00 AM21 °FPassing clouds.7 mph86%30.68 "Hg15 mi
3:00 AM23 °FPassing clouds.3 mph80%30.67 "Hg15 mi
2:00 AM23 °FPassing clouds.6 mph80%30.65 "Hg15 mi
1:00 AM25 °FPassing clouds.6 mph80%30.64 "Hg15 mi
12:00 AM27 °FPassing clouds.6 mph74%30.62 "Hg15 mi
11:00 PM
Apr 16
27 °FPassing clouds.7 mph74%30.60 "Hg15 mi
10:00 PM28 °FPassing clouds.7 mph64%30.59 "Hg15 mi
9:00 PM28 °FClear.7 mph59%30.56 "Hg15 mi
8:00 PM32 °FPassing clouds.2 mph44%30.53 "Hg15 mi
7:00 PM34 °FScattered clouds.7 mph41%30.52 "Hg15 mi
6:00 PM36 °FScattered clouds.8 mph41%30.51 "Hg15 mi
5:00 PM32 °FScattered clouds.9 mph47%30.50 "Hg15 mi
4:00 PM34 °FScattered clouds.7 mph41%30.49 "Hg15 mi
3:00 PM32 °FScattered clouds.12 mph40%30.50 "Hg15 mi
2:00 PM30 °FPassing clouds.9 mph37%30.50 "Hg15 mi
1:00 PM28 °FPassing clouds.8 mph43%30.49 "Hg15 mi
12:00 PM27 °FPassing clouds.15 mph46%30.49 "Hg15 mi
11:00 AM23 °FPassing clouds.13 mph54%30.47 "Hg15 mi
10:00 AM21 °FPassing clouds.9 mph58%30.46 "Hg15 mi
9:00 AM19 °FScattered clouds.13 mph68%30.42 "Hg15 mi
Weather by CustomWeather, © 2014

See weather overview